sat.trackr.live / text

‹ back to catalog

ONEWEB-0095

NORAD 45436 · 2020-020N

PAYLOAD ACTIVE UNKNOWN

§ Identity

Operator
Country
UK
Launch date
2020-03-21
Launch site
TYMSC
Launch vehicle
Mass (kg)
RCS (m²)

Purposes: comms

External: N2YO · Heavens-Above · Gunter

§ Orbital elements

Epoch: 2026-05-25T01:57:18.808416Z

Period
109.80 min
Inclination
87.8918°
Eccentricity
0.0002033
Mean motion
13.11418068 rev/d
Perigee alt
1,216.1 km
Apogee alt
1,219.2 km
Semi-major
7,595.8 km
B*
-1.4112e-3
RAAN
25.6640°
Arg perigee
104.8339°
Mean anomaly
255.3014°
Rev number
29,964

§ Raw data

ONEWEB-00951 45436U 20020N   26145.08146769 -.00000487  00000+0 -14112-2 0  99962 45436  87.8918  25.6640 0002033 104.8339 255.3014 13.11418068299647

JSON: /api/v1/satellites/45436 · /tle

For live sub-satellite position, see the globe view (requires WebGL).

§ Visibility from observer

Set your observer location to see the next 7 days of passes ≥ 10°. The values pass through the URL so the page stays shareable.

No JS? Fill the form by hand. The geolocation button needs JavaScript.